• In Deutschland
  • Länderverzeichnis
  • Für 7 Tage
  • Wassertemperatur
  • Satellitenkarten
  • Wetterkarte
  • Widgets
  • user-avatar
    Anmelden

    Stündliche Wetter Lezhe

    Heute, 30 Mai, Dienstag

    Zeit Temperatur Niederschläge Wind Luftdruck Luftfeuchtigkeit
    00:00 +14°C° 0 mm 1 m/S 737 mmHg 82%
    01:00 +14°C° 0 mm 1 m/S 737 mmHg 82%
    02:00 +13°C° 0 mm 1 m/S 737 mmHg 83%
    03:00 +13°C° 0 mm 1 m/S 737 mmHg 83%
    04:00 +12°C° 0 mm 1 m/S 737 mmHg 84%
    05:00 +15°C° 0 mm 1 m/S 737 mmHg 75%
    06:00 +18°C° 0 mm 0 m/S 738 mmHg 66%
    07:00 +21°C° 0 mm 0 m/S 738 mmHg 58%
    08:00 +24°C° 0 mm 1 m/S 738 mmHg 54%
    09:00 +25°C° 0 mm 1 m/S 738 mmHg 49%
    10:00 +26°C° 0 mm 2 m/S 738 mmHg 45%
    11:00 +27°C° 0 mm 2 m/S 738 mmHg 45%
    12:00 +27°C° 0 mm 2 m/S 738 mmHg 45%
    13:00 +27°C° 0 mm 3 m/S 738 mmHg 45%
    14:00 +27°C° 0,1 mm 3 m/S 738 mmHg 47%
    15:00 +26°C° 0,1 mm 2 m/S 738 mmHg 50%
    16:00 +25°C° 0,1 mm 2 m/S 738 mmHg 53%
    17:00 +23°C° 0,1 mm 2 m/S 738 mmHg 63%
    18:00 +21°C° 0,1 mm 1 m/S 738 mmHg 73%
    19:00 +18°C° 0,1 mm 1 m/S 738 mmHg 83%
    20:00 +16°C° 0 mm 1 m/S 739 mmHg 84%
    21:00 +15°C° 0 mm 1 m/S 739 mmHg 85%
    22:00 +15°C° 0 mm 1 m/S 739 mmHg 86%
    23:00 +14°C° 0 mm 1 m/S 739 mmHg 86%

    Morgen, 31 Mai, Mittwoch

    Zeit Temperatur Niederschläge Wind Luftdruck Luftfeuchtigkeit
    00:00 +14°C° 0 mm 1 m/S 739 mmHg 86%
    01:00 +14°C° 0 mm 1 m/S 740 mmHg 86%
    02:00 +13°C° 0 mm 1 m/S 739 mmHg 86%
    03:00 +13°C° 0 mm 1 m/S 739 mmHg 86%
    04:00 +13°C° 0 mm 1 m/S 739 mmHg 86%
    05:00 +16°C° 0 mm 1 m/S 740 mmHg 77%
    06:00 +19°C° 0 mm 1 m/S 740 mmHg 68%
    07:00 +22°C° 0 mm 1 m/S 740 mmHg 59%
    08:00 +24°C° 0 mm 1 m/S 740 mmHg 54%
    09:00 +25°C° 0 mm 1 m/S 740 mmHg 48%
    10:00 +27°C° 0 mm 1 m/S 740 mmHg 43%
    11:00 +27°C° 0 mm 2 m/S 740 mmHg 42%
    12:00 +28°C° 0 mm 2 m/S 740 mmHg 41%
    13:00 +29°C° 0 mm 3 m/S 740 mmHg 40%
    14:00 +28°C° 0 mm 2 m/S 739 mmHg 43%
    15:00 +27°C° 0 mm 2 m/S 739 mmHg 47%
    16:00 +26°C° 0 mm 2 m/S 739 mmHg 50%
    17:00 +24°C° 0 mm 2 m/S 739 mmHg 61%
    18:00 +21°C° 0 mm 1 m/S 739 mmHg 73%
    19:00 +19°C° 0 mm 1 m/S 739 mmHg 84%
    20:00 +16°C° 0 mm 0 m/S 739 mmHg 84%
    21:00 +15°C° 0 mm 0 m/S 739 mmHg 85%
    22:00 +14°C° 0 mm 0 m/S 740 mmHg 85%
    23:00 +14°C° 0 mm 0 m/S 740 mmHg 84%

    übermorgen, 1 Juni, Donnerstag

    Zeit Temperatur Niederschläge Wind Luftdruck Luftfeuchtigkeit
    00:00 +14°C° 0 mm 0 m/S 739 mmHg 84%
    01:00 +14°C° 0 mm 0 m/S 739 mmHg 83%
    02:00 +13°C° 0 mm 0 m/S 739 mmHg 84%
    03:00 +13°C° 0 mm 0 m/S 739 mmHg 84%
    04:00 +13°C° 0 mm 0 m/S 739 mmHg 85%
    05:00 +16°C° 0 mm 0 m/S 740 mmHg 75%
    06:00 +19°C° 0 mm 0 m/S 740 mmHg 65%
    07:00 +22°C° 0 mm 0 m/S 740 mmHg 56%
    08:00 +24°C° 0 mm 0 m/S 740 mmHg 52%
    09:00 +27°C° 0 mm 1 m/S 740 mmHg 48%
    10:00 +29°C° 0 mm 1 m/S 740 mmHg 44%
    11:00 +29°C° 0,1 mm 2 m/S 740 mmHg 45%
    12:00 +30°C° 0,1 mm 2 m/S 740 mmHg 45%
    13:00 +30°C° 0,1 mm 3 m/S 739 mmHg 45%
    14:00 +29°C° 0,2 mm 3 m/S 739 mmHg 48%
    15:00 +29°C° 0,2 mm 2 m/S 739 mmHg 51%
    16:00 +28°C° 0,2 mm 2 m/S 739 mmHg 53%
    17:00 +25°C° 0,1 mm 2 m/S 739 mmHg 64%
    18:00 +23°C° 0,1 mm 1 m/S 739 mmHg 75%
    19:00 +20°C° 0,1 mm 1 m/S 739 mmHg 86%
    20:00 +19°C° 0,1 mm 1 m/S 739 mmHg 87%
    21:00 +16°C° 0,1 mm 0 m/S 739 mmHg 88%
    22:00 +15°C° 0,1 mm 0 m/S 740 mmHg 88%
    23:00 +15°C° 0 mm 0 m/S 740 mmHg 89%

    2 Juni, Freitag

    Zeit Temperatur Niederschläge Wind Luftdruck Luftfeuchtigkeit
    00:00 +15°C° 0 mm 0 m/S 739 mmHg 90%
    01:00 +15°C° 0 mm 0 m/S 739 mmHg 90%
    02:00 +15°C° 0 mm 0 m/S 739 mmHg 90%
    03:00 +14°C° 0 mm 0 m/S 739 mmHg 90%
    04:00 +15°C° 0 mm 1 m/S 739 mmHg 90%
    05:00 +19°C° 0 mm 1 m/S 739 mmHg 82%
    06:00 +20°C° 0 mm 0 m/S 739 mmHg 74%
    07:00 +23°C° 0 mm 0 m/S 739 mmHg 66%
    08:00 +27°C° 0,1 mm 1 m/S 739 mmHg 61%
    09:00 +28°C° 0,1 mm 1 m/S 739 mmHg 56%
    10:00 +30°C° 0,1 mm 2 m/S 739 mmHg 51%
    11:00 +30°C° 0,4 mm 2 m/S 739 mmHg 51%
    12:00 +30°C° 0,4 mm 2 m/S 739 mmHg 51%
    13:00 +31°C° 0,4 mm 3 m/S 738 mmHg 51%
    14:00 +30°C° 0,5 mm 2 m/S 738 mmHg 53%
    15:00 +30°C° 0,5 mm 2 m/S 738 mmHg 55%
    16:00 +29°C° 0,5 mm 2 m/S 738 mmHg 57%
    17:00 +26°C° 0,3 mm 2 m/S 738 mmHg 67%
    18:00 +24°C° 0,3 mm 1 m/S 738 mmHg 77%
    19:00 +21°C° 0,3 mm 1 m/S 738 mmHg 87%
    20:00 +20°C° 0,2 mm 1 m/S 738 mmHg 89%
    21:00 +17°C° 0,2 mm 0 m/S 738 mmHg 90%
    22:00 +16°C° 0,2 mm 0 m/S 738 mmHg 91%
    23:00 +16°C° 0,1 mm 0 m/S 738 mmHg 91%

    3 Juni, Samstag

    Zeit Temperatur Niederschläge Wind Luftdruck Luftfeuchtigkeit
    00:00 +15°C° 0,1 mm 0 m/S 738 mmHg 91%
    01:00 +15°C° 0,1 mm 0 m/S 737 mmHg 91%
    02:00 +15°C° 0 mm 0 m/S 737 mmHg 91%
    03:00 +15°C° 0 mm 0 m/S 737 mmHg 91%
    04:00 +15°C° 0 mm 0 m/S 737 mmHg 91%
    05:00 +18°C° 0,1 mm 0 m/S 737 mmHg 83%
    06:00 +21°C° 0,1 mm 0 m/S 738 mmHg 75%
    07:00 +23°C° 0,1 mm 0 m/S 738 mmHg 67%
    08:00 +27°C° 0,3 mm 1 m/S 738 mmHg 62%
    09:00 +28°C° 0,3 mm 1 m/S 738 mmHg 56%
    10:00 +30°C° 0,3 mm 1 m/S 738 mmHg 51%
    11:00 +30°C° 0,7 mm 2 m/S 738 mmHg 52%
    12:00 +30°C° 0,7 mm 2 m/S 737 mmHg 53%
    13:00 +30°C° 0,7 mm 2 m/S 737 mmHg 54%
    14:00 +29°C° 0,7 mm 2 m/S 737 mmHg 56%
    15:00 +29°C° 0,7 mm 2 m/S 737 mmHg 58%
    16:00 +28°C° 0,7 mm 2 m/S 737 mmHg 60%
    17:00 +26°C° 0,7 mm 2 m/S 737 mmHg 69%
    18:00 +24°C° 0,7 mm 1 m/S 737 mmHg 78%
    19:00 +21°C° 0,7 mm 1 m/S 737 mmHg 88%
    20:00 +21°C° 0,4 mm 1 m/S 737 mmHg 89%
    21:00 +18°C° 0,4 mm 0 m/S 737 mmHg 89%
    22:00 +17°C° 0,4 mm 0 m/S 737 mmHg 90%
    23:00 +17°C° 0,2 mm 0 m/S 737 mmHg 91%

    4 Juni, Sonntag

    Zeit Temperatur Niederschläge Wind Luftdruck Luftfeuchtigkeit
    00:00 +16°C° 0,2 mm 0 m/S 737 mmHg 91%
    01:00 +16°C° 0,2 mm 0 m/S 737 mmHg 91%
    02:00 +15°C° 0,1 mm 0 m/S 737 mmHg 91%
    03:00 +15°C° 0,1 mm 0 m/S 737 mmHg 91%
    04:00 +15°C° 0,1 mm 0 m/S 737 mmHg 91%
    05:00 +18°C° 0 mm 0 m/S 737 mmHg 84%
    06:00 +20°C° 0 mm 0 m/S 737 mmHg 77%
    07:00 +23°C° 0 mm 0 m/S 738 mmHg 70%
    08:00 +27°C° 0,2 mm 1 m/S 738 mmHg 63%
    09:00 +28°C° 0,2 mm 1 m/S 738 mmHg 57%
    10:00 +30°C° 0,2 mm 1 m/S 738 mmHg 51%
    11:00 +30°C° 0,3 mm 2 m/S 737 mmHg 50%
    12:00 +30°C° 0,3 mm 2 m/S 737 mmHg 49%
    13:00 +31°C° 0,3 mm 3 m/S 737 mmHg 48%
    14:00 +30°C° 0,4 mm 3 m/S 737 mmHg 51%
    15:00 +30°C° 0,4 mm 2 m/S 737 mmHg 53%
    16:00 +29°C° 0,4 mm 2 m/S 737 mmHg 55%
    17:00 +27°C° 0,3 mm 2 m/S 737 mmHg 65%
    18:00 +24°C° 0,3 mm 1 m/S 737 mmHg 75%
    19:00 +22°C° 0,3 mm 1 m/S 737 mmHg 86%
    20:00 +21°C° 0,2 mm 1 m/S 737 mmHg 86%
    21:00 +18°C° 0,2 mm 0 m/S 737 mmHg 86%
    22:00 +17°C° 0,2 mm 0 m/S 737 mmHg 87%
    23:00 +17°C° 0,1 mm 0 m/S 737 mmHg 88%
    Mehr zeigen